Location: Le Hiès Ruisseau
(43.3000°N, 0.4500°W)
Time: 10:43:45
(UTC+00:00)

ATLAS CENTAUR R/B - Visible Passes

Search period start: 28 September 2023 00:00
Search period end: 08 October 2023 00:00
Orbit: 461 x 614 km, 64.7° (Epoch: 25 September)

Date Brightness Start Highest point End Pass type
(mag) Time Alt. Az. Time Alt. Az. Time Alt. Az.
02 Oct 2.9 05:31:32 10° NNW 05:34:46 31° NE 05:37:59 10° ESE visible
03 Oct 2.5 05:22:32 10° NNW 05:25:54 37° NE 05:29:15 10° ESE visible
04 Oct 2.2 05:13:32 10° NNW 05:17:00 44° NE 05:20:26 10° SE visible
05 Oct 1.7 05:04:32 10° NNW 05:08:03 54° NE 05:11:34 10° SE visible
06 Oct 1.3 04:55:31 10° NNW 04:59:04 66° NE 05:02:39 10° SE visible
07 Oct 4.3 03:10:44 10° NNE 03:11:21 10° NE 03:11:58 10° NE visible
07 Oct 1.0 04:46:28 10° NNW 04:50:04 81° NE 04:53:40 10° SE visible
